User: anonymous   Login
Location: Unspecified
(0.0000°N, 0.0000°E)
Time: 00:47:05
(UTC+00:00)
Language:

WILDFIRE 5 - Orbit

View from above orbital plane
View from above orbital plane
View from above satellite
View from above satellite

Ground track
Ground track

The orbit is defined by the following mean orbital elements,

1 57769U          26145.61257473 +.00000000 +00000-0 +17228-4 0 00004
2 57769  81.0052  29.4751 0007181  71.2267 288.9668 13.85463800    07
Epoch (UTC): 25 May 2026 14:42:06
Eccentricity: 0.0007181
inclination: 81.0052°
perigee height: 939 km
apogee height: 950 km
right ascension of ascending node: 29.4751°
argument of perigee: 71.2267°
revolutions per day: 13.85463800
mean anomaly at epoch: 288.9668°

The dashed part of the orbit path shows where the satellite is in the earth's shadow,  

DLR